Location: Demre
(36.2444°N, 29.9850°E)
Time: 05:00:21
(UTC+00:00)

Cosmos 1763 Rocket - Pass Details

Date: 11 March 2026
Orbit: 727 x 774 km, 74.0° (Epoch: 21 April)

Event Time Altitude Azimuth Distance (km) Brightness Sun altitude
Rises 18:23:34 0° 341° (NNW) 3,238 7.2 -28.6°
Reaches altitude 10° 18:25:57 10° 341° (NNW) 2,314 6.4 -29.1°
Enters shadow 18:29:56 53° 338° (NNW) 944 4.0 -29.8°
